Temp
15 15 15 15 16 15 16 16 15 17 16 16 15 15 16 15 15 16 16 15 12 11 11 13 12 12 11 11 10 9 9 9 9 8 8 7 7 7 7 7 6 6 5 5
14 15 15 14 15 16 15 16 16 15 15 17 17 15 15 14 14 14 14 15 14 12 12 13 13 12 11 11 10 9 9 8 8 7 7 7 7 6 6 6 6 5 5 4
15 15 15 15 14 14 15 15 16 15 16 17 15 14 14 13 13 13 13 13 13 12 13 13 13 12 11 10 9 8 8 8 7 7 6 6 6 6 6 6 5 5 4 4
10 14 14 16 13 14 15 16 15 15 16 15 15 14 13 13 13 11 11 11 10 12 13 13 13 12 11 9 9 8 7 7 7 6 6 6 6 6 5 5 5 4 4 3
11 14 17 14 13 14 14 16 16 16 16 15 14 13 13 13 12 12 10 10 11 12 13 13 12 10 9 8 7 7 7 7 7 6 6 6 5 5 5 4 4 4 3 3
13 14 17 16 14 15 15 14 15 15 15 15 14 11 12 13 13 11 11 11 11 11 12 11 9 9 8 7 7 7 7 7 6 6 6 5 5 5 5 4 3 3 3 3
13 13 14 15 13 14 16 14 14 15 14 14 12 11 11 11 11 11 11 10 10 10 10 9 8 8 7 7 7 7 7 7 6 6 7 6 5 4 4 3 3 3 3 2
13 14 11 13 13 14 13 14 14 14 14 13 11 11 11 10 10 10 10 9 9 9 8 8 7 7 6 6 6 6 6 6 6 7 6 5 4 4 3 3 3 2 2 2
13 13 14 12 15 13 12 12 13 13 13 12 10 10 9 9 9 9 10 8 8 8 7 7 6 6 6 6 6 6 5 6 6 6 5 5 3 3 3 3 2 2 1 1
13 16 14 13 13 13 13 13 13 12 11 10 9 8 8 8 8 8 8 8 8 7 7 6 6 6 6 6 6 5 5 5 5 4 4 3 3 3 2 2 2 1 1 1
12 13 13 13 13 13 11 12 11 11 10 9 8 7 8 7 7 8 7 7 7 7 6 6 6 6 6 6 6 5 5 4 4 4 3 3 2 2 2 2 2 1 1 0
11 14 13 12 10 11 11 11 10 9 8 8 8 7 8 7 7 7 6 6 6 6 6 6 6 6 6 6 5 4 4 3 3 3 2 2 2 1 1 1 1 1 1 1
14 13 11 11 11 11 10 9 9 8 8 7 8 8 8 6 7 7 6 6 5 5 6 6 6 5 5 5 4 4 3 3 2 2 1 1 0 0 -1 1 1 1 0 0
10 10 11 10 9 7 8 8 8 7 7 7 8 7 7 6 6 6 6 6 6 6 5 5 5 5 5 4 4 3 3 2 2 1 1 1 0 0 -0 -1 -1 -1 -0 -0
10 9 9 7 8 8 8 7 7 6 6 6 7 6 6 6 5 6 6 6 5 5 5 5 4 4 4 3 2 2 1 1 1 1 0 0 0 0 -0 -1 -1 -1 -1 -1
9 8 7 7 7 7 7 7 6 5 5 6 6 6 5 5 5 5 5 5 4 4 4 4 3 3 2 2 1 1 1 1 0 0 0 0 -0 -1 -1 -1 -1 -2 -2 -2
2 5 6 6 5 6 6 5 5 5 5 5 5 5 5 4 4 4 4 4 3 2 2 2 2 2 2 2 1 1 0 -0 -1 -0 -0 -1 -1 -1 -2 -2 -2 -2 -2 -2
6 5 5 4 4 4 4 4 4 4 3 4 4 3 3 2 1 2 2 2 2 2 2 2 2 1 1 1 0 -0 -1 -1 -2 -2 -2 -2 -2 -2 -2 -3 -3 -3 -3 -3
5 3 4 4 4 4 3 2 3 3 3 3 3 2 2 2 2 2 2 1 1 0 1 1 1 1 0 -0 -1 -1 -2 -2 -2 -3 -3 -3 -3 -3 -3 -3 -3 -3 -3 -4
4 4 4 3 4 3 2 3 3 3 3 3 3 2 1 2 1 1 1 0 1 0 0 0 -0 -1 -1 -1 -2 -2 -2 -3 -3 -3 -3 -3 -3 -3 -3 -3 -3 -4 -4 -4
-2 2 2 2 2 3 3 3 3 2 2 2 1 1 1 1 1 0 -0 -2 -0 -0 -1 -1 -1 -2 -2 -2 -2 -2 -3 -3 -3 -3 -3 -3 -3 -3 -3 -3 -4 -4 -4 -5
0 -1 0 2 2 2 3 2 2 2 1 1 1 0 -0 -0 -0 -1 -1 -1 -1 -1 -1 -2 -2 -2 -3 -2 -2 -3 -3 -3 -3 -3 -3 -3 -3 -4 -4 -5 -5 -5 -6 -6
1 1 1 1 1 1 1 1 1 1 1 0 0 -0 -1 -1 -1 -3 -4 -1 -1 -2 -2 -2 -3 -3 -3 -3 -3 -3 -4 -4 -4 -4 -4 -4 -4 -5 -5 -5 -6 -6 -7 -7
2 1 1 1 0 0 -1 1 1 0 0 0 -0 -0 -1 -1 -1 -1 -1 -2 -2 -3 -3 -3 -3 -3 -3 -3 -4 -4 -4 -5 -5 -5 -5 -5 -5 -6 -6 -7 -7 -7 -7 -7
2 1 1 -0 -1 -1 1 1 0 0 -0 -0 -0 -1 -1 -1 -2 -2 -2 -2 -3 -3 -3 -3 -3 -4 -4 -4 -5 -5 -5 -5 -5 -5 -5 -5 -6 -7 -7 -7 -7 -7 -6 -6
1 1 1 1 0 1 0 -0 -1 -1 -1 -1 -1 -1 -1 -2 -2 -2 -3 -3 -3 -4 -4 -4 -5 -5 -4 -4 -4 -5 -5 -5 -5 -6 -6 -7 -7 -7 -7 -7 -7 -7 -6 -6
0 -0 0 0 0 1 0 -0 -1 -1 -1 -1 -1 -2 -2 -2 -2 -3 -3 -4 -5 -5 -5 -5 -5 -5 -5 -5 -5 -5 -5 -5 -6 -6 -7 -7 -7 -7 -7 -7 -6 -6 -6 -6
Height
788 788 786 787 786 789 789 787 797 791 793 790 789 788 787 786 785 783 783 783 785 787 789 791 794 797 800 803 804 805 806 807 808 809 809 810 809 808 808 806 805 803 801 799
791 788 788 790 785 785 789 787 789 791 794 783 783 785 788 789 787 786 785 782 782 783 784 786 789 793 797 799 801 804 805 805 806 808 809 809 808 807 805 803 802 800 798 796
789 788 788 791 786 787 785 784 784 793 788 783 787 789 789 789 788 788 786 784 782 781 780 781 785 788 792 796 798 800 801 802 803 805 807 807 806 804 802 800 798 796 794 791
811 790 800 782 784 780 782 780 784 785 784 786 788 788 787 786 788 789 787 785 783 780 778 778 781 786 790 793 797 799 800 801 802 804 803 802 802 801 799 797 795 792 789 787
811 797 778 785 787 786 786 783 777 782 782 784 786 786 788 787 787 787 786 783 781 779 777 777 780 783 788 792 796 799 801 801 801 800 799 799 798 795 794 792 790 787 785 782
800 796 784 777 781 778 779 790 781 782 784 785 787 797 790 785 784 783 783 783 780 779 777 778 781 785 789 793 796 798 799 799 799 798 796 794 793 792 789 788 785 782 779 777
799 799 787 778 782 781 786 792 783 782 784 785 790 790 786 783 783 782 782 781 780 779 780 781 783 787 790 793 796 796 796 796 795 793 791 790 788 786 784 782 779 776 774 771
796 796 807 781 785 786 784 781 782 782 784 785 787 786 785 783 782 781 781 782 782 781 782 784 785 788 790 792 794 794 794 792 789 790 788 786 783 780 778 776 774 771 768 765
787 787 773 776 774 776 778 782 782 784 784 785 787 786 784 782 780 780 780 782 783 783 785 786 787 788 791 791 792 792 790 788 786 784 782 780 778 775 773 771 768 765 763 759
782 768 771 773 772 773 775 778 780 782 783 784 787 786 786 782 780 780 781 784 786 786 787 788 789 790 789 790 790 789 787 784 782 780 778 776 774 771 769 766 763 760 757 754
781 773 771 768 769 769 775 777 780 781 783 784 784 785 784 783 782 783 783 784 787 787 788 789 789 789 788 787 787 784 782 779 777 775 773 771 768 766 763 759 757 755 751 749
780 765 768 769 771 772 774 776 778 781 783 783 783 784 783 782 782 784 785 786 787 788 787 789 789 787 786 784 782 780 778 776 773 771 769 766 763 759 757 754 751 748 746 744
762 762 766 769 770 770 773 776 778 780 781 781 781 782 781 782 782 784 786 787 788 789 787 786 786 783 781 780 779 777 774 771 768 766 763 760 757 754 749 743 743 740 738 735
759 762 765 766 770 772 773 775 777 780 779 778 780 782 782 781 782 785 786 786 787 786 785 783 781 779 777 775 773 770 768 765 763 759 756 753 750 747 744 742 737 731 728 728
757 759 763 767 769 770 771 772 776 778 777 779 781 781 781 782 782 784 783 784 784 782 781 779 778 775 773 771 767 764 762 759 756 753 750 747 745 741 739 736 732 727 722 718
757 760 764 766 767 768 769 771 774 776 775 777 780 781 780 780 780 782 781 781 781 780 777 775 773 770 767 765 762 758 755 753 751 748 744 741 738 735 732 729 726 722 718 715
767 767 765 766 767 767 768 769 770 772 774 777 778 779 780 777 780 780 778 778 778 777 774 771 767 764 762 759 756 753 750 747 745 743 739 736 732 729 727 724 720 717 713 711
757 759 760 761 764 766 769 770 771 772 776 778 778 778 777 778 779 778 777 775 772 771 769 766 763 760 758 755 752 748 745 742 740 737 734 731 728 724 721 718 715 711 707 704
756 759 760 761 764 766 768 771 772 774 775 777 778 777 776 777 777 775 774 772 770 767 763 762 760 757 753 750 747 744 741 738 735 733 730 726 723 719 716 712 708 705 701 698
758 759 760 761 764 766 769 771 773 774 776 778 776 775 774 775 775 773 771 769 767 765 761 758 756 752 749 746 743 740 737 734 731 728 724 720 716 713 709 706 703 700 697 693
760 761 762 763 765 768 771 772 774 776 775 775 773 773 773 773 772 770 767 765 762 761 758 755 752 748 744 742 739 736 733 729 726 722 718 714 710 706 703 701 698 695 691 688
759 762 764 765 767 769 770 769 771 773 771 772 771 772 770 769 767 766 765 762 758 756 753 750 747 743 741 738 734 731 728 725 721 717 713 709 706 704 701 698 694 690 688 683
760 762 764 766 767 769 769 768 768 769 768 768 768 768 766 765 764 762 760 757 755 752 749 746 742 739 736 732 729 727 724 721 717 714 710 707 704 701 697 694 691 687 682 677
759 763 766 767 766 767 766 765 766 765 765 764 764 763 762 761 760 758 756 754 751 748 745 742 738 734 731 728 726 723 720 717 713 710 706 704 701 698 695 691 687 682 677 673
760 762 765 766 764 764 762 762 763 762 762 761 759 759 759 758 757 754 752 749 746 744 740 737 734 731 728 725 723 720 717 714 710 707 704 701 698 695 691 688 683 678 673 669
760 762 763 762 762 762 759 761 760 759 759 757 756 756 755 754 752 751 749 746 743 740 737 733 730 727 724 722 718 715 713 709 707 704 702 699 696 693 689 685 680 675 670 665
759 761 761 760 758 758 757 757 757 755 755 754 753 752 751 750 748 747 744 741 739 736 733 730 726 723 720 717 714 712 708 706 704 702 699 697 694 690 687 682 678 673 667 664
Wind_Speed
4 3 3 3 4 4 3 2 2 1 5 7 6 6 5 5 6 4 5 4 7 8 9 18 18 17 16 15 13 12 10 8 6 5 3 3 4 6 8 11 14 15 17 19
2 1 0 1 4 6 5 3 4 4 5 4 4 5 6 7 7 6 7 5 5 7 11 14 17 17 15 14 14 12 9 7 6 4 5 5 7 10 12 15 17 18 20 21
1 1 4 4 6 8 5 6 5 5 2 2 5 6 5 7 6 7 7 7 7 7 12 16 14 18 17 15 14 12 9 8 6 4 5 8 10 13 16 18 19 20 22 22
2 2 2 1 5 2 4 2 7 5 3 5 3 5 6 3 3 6 7 7 8 12 10 14 13 15 15 15 13 9 7 5 4 4 7 10 14 17 19 19 22 22 23 23
2 2 2 3 2 3 4 2 4 6 5 4 4 6 3 4 1 3 6 7 11 14 10 9 13 16 16 12 8 7 5 4 4 6 10 14 18 20 22 22 23 25 23 24
1 1 2 2 4 0 0 2 4 6 4 2 2 2 2 2 3 5 7 12 10 10 2 12 14 13 10 8 9 7 4 4 7 10 14 17 22 23 23 24 25 23 24 26
1 1 4 2 4 1 2 4 4 2 1 2 1 4 5 8 7 6 6 9 6 2 6 9 12 10 9 8 6 4 4 6 11 16 22 24 25 25 25 24 24 24 25 27
1 1 6 5 3 5 4 2 4 2 2 1 5 7 7 7 6 5 4 3 3 3 7 11 10 9 8 6 4 5 8 13 18 26 25 26 26 26 24 23 24 25 26 27
6 5 1 7 3 4 3 3 1 1 2 4 6 6 7 6 6 4 2 2 1 6 8 5 6 7 6 5 5 10 11 18 23 26 27 26 25 24 24 25 24 26 25 25
3 2 5 7 7 6 5 1 2 3 3 5 6 7 7 6 5 2 2 4 2 5 7 7 6 6 6 7 12 11 18 23 26 27 28 26 25 26 25 26 26 25 25 24
4 8 8 7 3 6 6 2 3 2 2 4 4 6 5 4 3 4 6 5 3 4 4 5 6 8 10 10 14 19 22 24 26 26 26 27 27 27 26 28 27 26 27 24
5 5 3 2 6 5 4 2 2 2 4 4 1 4 3 2 5 5 5 4 4 3 3 6 10 13 14 19 19 21 22 25 25 24 25 26 27 30 31 29 28 29 30 30
8 3 4 4 4 2 3 3 1 2 3 3 1 1 2 3 4 4 4 2 3 5 7 10 13 19 20 20 18 20 23 25 27 26 27 27 26 26 23 33 30 31 29 27
5 5 2 3 2 7 4 1 0 2 3 2 1 3 5 5 5 2 3 4 6 8 12 16 18 22 23 20 21 23 24 24 26 28 28 28 27 27 27 24 23 31 32 24
6 5 4 5 4 2 2 3 3 4 3 3 3 5 5 3 1 2 3 6 10 13 17 19 20 22 25 25 24 24 25 27 29 28 28 27 26 27 28 26 25 27 29 29
4 5 6 4 3 1 0 2 4 3 4 4 6 4 3 1 2 6 9 11 12 15 19 21 23 29 28 24 24 23 25 27 24 24 27 27 27 25 24 23 23 22 23 24
5 3 5 3 4 3 2 2 2 2 6 6 6 5 3 2 7 11 13 14 18 19 22 23 27 25 24 23 22 24 27 28 25 24 26 27 25 24 23 21 21 20 22 24
5 4 5 6 5 5 4 4 6 7 5 6 4 2 3 6 10 15 18 17 19 22 24 24 22 20 21 24 25 25 24 26 25 23 24 24 23 21 18 19 20 22 24 24
6 6 6 6 7 6 7 7 7 7 6 3 3 6 7 12 14 15 15 16 20 21 24 23 24 23 25 26 23 22 23 24 25 22 20 20 21 23 23 23 23 24 22 23
5 8 9 9 10 10 10 8 6 3 3 5 6 8 10 13 14 15 17 18 23 24 24 24 24 26 24 24 21 20 21 19 21 22 23 23 22 23 23 22 22 22 23 25
4 10 11 11 10 8 6 4 2 4 5 7 7 10 11 14 15 17 19 14 23 22 23 23 22 24 24 22 21 20 20 21 21 21 22 23 24 23 22 20 20 22 22 19
9 9 8 8 6 4 3 2 4 7 8 10 10 10 11 15 18 17 18 21 23 19 23 24 26 25 21 23 21 21 21 21 21 22 21 20 18 19 19 22 21 17 25 24
11 10 8 6 4 3 3 5 6 7 9 10 12 15 16 17 18 17 10 21 22 24 24 25 24 22 22 22 21 20 20 20 20 21 22 21 21 22 19 20 24 23 24 24
10 7 5 5 4 4 5 4 5 8 10 13 14 14 14 16 18 18 18 21 24 24 23 25 23 22 22 19 20 21 22 22 22 23 22 22 20 20 23 22 24 25 25 26
8 6 6 7 6 7 7 7 10 11 12 13 13 14 13 14 15 20 22 25 26 24 25 21 20 19 19 19 20 20 20 22 23 22 22 18 24 22 22 23 25 25 26 26
5 5 6 6 6 7 8 9 11 13 12 15 15 14 15 16 17 19 20 22 23 22 19 19 18 19 21 20 21 21 22 23 22 20 17 22 19 20 22 24 26 27 27 26
5 6 6 8 8 10 10 11 11 14 13 13 15 18 16 17 18 18 20 23 20 17 19 20 22 23 21 22 20 23 22 20 18 17 17 16 17 20 22 23 24 25 26 22
Wind_Direction
91 55 19 21 156 168 185 290 106 18 10 330 53 17 2 351 354 342 312 313 206 192 200 212 209 208 204 201 193 192 190 188 191 210 229 245 276 302 316 321 322 320 315 313
177 167 135 280 235 186 194 270 300 313 299 53 61 41 19 11 4 351 340 312 282 216 209 213 206 200 198 197 191 200 196 194 210 220 247 290 307 315 318 318 316 313 312 313
280 253 317 306 212 188 180 190 183 180 113 44 23 12 349 347 352 341 337 330 310 266 220 214 212 196 194 197 196 197 194 193 218 241 284 307 311 310 311 312 314 309 308 310
259 330 21 200 25 56 169 222 220 300 19 66 57 303 287 69 24 338 335 330 326 320 262 213 200 188 184 186 186 195 201 207 237 274 294 303 305 307 306 312 310 307 307 308
95 272 176 185 231 148 173 126 191 180 109 79 34 320 47 86 4 294 306 305 309 306 295 188 170 162 165 165 181 199 208 224 258 285 300 302 298 311 312 309 302 302 304 306
349 331 253 105 147 334 107 222 90 95 87 39 16 28 256 284 321 310 327 328 325 327 129 140 137 154 155 179 192 200 210 252 292 304 303 303 310 304 305 302 301 304 300 301
237 296 302 121 146 255 112 221 132 109 25 324 282 221 286 330 329 353 325 318 318 19 107 131 141 149 164 177 190 194 241 303 310 321 317 304 304 301 301 300 299 296 296 299
306 208 294 137 77 170 181 83 141 195 266 297 290 299 312 305 305 326 315 314 317 126 113 128 150 169 178 186 197 246 297 304 318 305 303 302 299 298 297 295 290 290 293 296
179 216 151 188 76 118 105 120 343 218 314 336 311 304 306 306 318 338 320 167 190 142 135 156 177 180 186 205 246 289 289 303 301 301 300 299 297 293 290 289 285 286 289 289
35 303 213 205 233 197 186 127 96 17 345 328 301 314 313 317 326 15 107 123 141 137 158 167 197 214 232 272 290 284 295 299 300 300 300 297 291 288 285 283 283 283 282 285
252 290 298 273 193 159 132 124 272 305 350 299 305 308 305 331 359 73 107 112 149 169 177 201 227 256 284 290 293 302 303 297 295 293 291 290 286 285 283 282 280 276 279 281
224 220 157 150 146 123 150 234 59 18 318 326 3 298 334 49 81 117 133 157 178 202 237 271 290 295 295 303 309 305 297 296 294 292 292 290 288 290 292 287 287 283 281 280
253 135 144 131 149 145 143 101 46 348 299 315 320 282 122 122 120 129 143 171 247 270 281 295 294 297 303 310 306 297 293 293 292 290 288 287 286 284 283 295 292 289 287 287
108 100 331 198 153 122 129 150 36 272 268 270 179 141 138 130 132 173 235 269 277 285 294 297 297 300 311 310 304 300 298 294 288 286 286 284 279 279 281 281 284 292 297 292
169 175 123 122 107 146 201 190 203 251 201 159 173 151 145 152 206 273 322 316 304 298 299 303 305 305 309 309 305 302 299 294 292 290 288 283 282 284 284 280 277 280 289 294
167 147 127 170 214 230 32 285 227 243 159 159 165 142 114 73 305 302 310 313 300 296 301 302 303 305 310 307 304 303 301 299 292 289 289 288 287 281 278 278 279 281 288 293
117 203 207 210 200 185 159 172 153 153 140 150 154 161 209 308 306 304 307 311 310 306 305 307 305 313 311 304 301 300 300 297 294 291 291 290 287 283 282 284 287 290 295 297
156 135 146 156 166 155 151 125 114 123 135 151 164 215 309 312 288 302 311 316 311 308 313 319 317 313 311 308 309 308 303 299 295 292 293 293 291 293 301 304 298 292 289 291
159 175 168 159 164 147 131 127 138 145 155 193 271 297 307 299 304 309 311 307 303 303 308 313 313 315 315 316 317 311 305 303 302 298 298 300 302 297 290 287 285 284 286 295
148 139 133 125 133 138 138 148 155 185 257 273 288 298 305 306 310 312 314 302 302 303 312 314 314 317 320 320 318 313 311 305 299 295 293 293 291 291 289 286 289 290 294 294
136 135 131 127 119 119 128 155 224 274 285 291 295 295 299 301 308 313 305 295 307 314 314 314 316 314 315 316 313 308 305 300 294 296 298 294 290 288 287 290 298 298 295 309
137 127 122 128 138 153 189 214 264 283 296 303 308 300 299 301 307 306 302 294 311 314 316 316 318 319 312 313 312 311 308 300 296 297 299 308 313 314 309 303 297 303 310 303
149 149 159 173 175 198 248 274 281 284 293 300 297 295 296 299 300 296 296 319 316 317 314 313 315 312 314 315 313 311 312 313 316 315 312 313 311 307 307 316 312 309 305 303
151 160 183 195 209 259 289 305 289 292 295 296 294 301 301 299 305 308 311 311 313 318 313 313 314 316 319 321 319 315 315 316 313 313 311 313 311 320 321 314 310 309 307 307
147 165 205 219 224 251 272 296 302 306 306 302 304 309 306 302 288 306 310 315 319 317 316 316 317 321 321 320 321 320 320 320 318 315 319 317 324 324 321 318 317 314 314 315
183 224 245 252 264 272 280 285 281 294 296 296 303 307 303 305 306 308 313 315 314 319 319 319 318 319 316 314 316 317 318 318 318 322 318 322 328 328 329 330 327 326 325 325
247 258 281 281 278 277 276 276 275 282 292 288 290 298 302 306 306 305 307 317 321 320 320 318 316 316 312 309 313 319 318 316 314 316 321 328 333 335 337 337 339 343 341 339